Palmdale - Butte, CA

8:53 AM PDT on August 21, 2017 (GMT -0700)
Palmdale - Butte

Weather History for KGXA - February, 2014

Change the Weather History Date:

Tuesday, February 25, 2014

  Actual Average (KPMD) Record (KPMD)
Temperature  
Mean Temperature 57 °F -  
Max Temperature 73 °F 65 °F 80 °F (1986)
Min Temperature 41 °F 37 °F 22 °F (1974)
Degree Days  
Heating Degree Days 8    
Growing Degree Days 7 (Base 50)    
Moisture  
Dew Point 27 °F    
Average Humidity 36    
Maximum Humidity 72    
Minimum Humidity 15    
Precipitation  
Precipitation 0.00 in - - ()
Sea Level Pressure  
Sea Level Pressure 29.97 in    
Wind  
Wind Speed 5 mph (SE)    
Max Wind Speed 10 mph    
Max Gust Speed 18 mph    
Averages and records for this station are not official NWS values.
T = Trace of Precipitation, MM = Missing Value Source: NWS Daily Summary

Daily Weather History Graph

Daily Weather History Graph

Search for Another Location

Airport or City:

Trip Planner

Search our weather history database for the weather conditions in past years. The results will help you decide how hot, cold, wet, or windy it might be!

Date:

Astronomy

Feb. 25, 2014 Rise Set
Actual Time 6:24 AM PST 5:43 PM PST
Civil Twilight 5:59 AM PST 6:08 PM PST
Nautical Twilight 5:30 AM PST 6:37 PM PST
Astronomical Twilight 5:00 AM PST 7:07 PM PST
Moon 3:16 AM PST (2/25) 2:00 PM PST (2/25)
Length of Visible Light 12h 09m
Length of Day
11h 18m
Waning Crescent, 17% of the Moon is Illuminated
Feb 25
Waning Crescent
Mar 1
New
Mar 8
First Quarter
Mar 16
Full
Mar 23
Last Quarter

Hourly Weather History & Observations

Time (PST) Temp. Windchill Dew Point Humidity Pressure Visibility Wind Dir Wind Speed Gust Speed Precip Events Conditions
12:55 AM 42.8 °F 39.3 °F 23.5 °F 47% 30.00 in - SSE 5.8 mph - N/A   Unknown
1:55 AM 42.4 °F 38.8 °F 23.2 °F 47% 29.99 in - SSE 5.8 mph - N/A   Unknown
2:55 AM 41.5 °F 37.8 °F 23.7 °F 49% 29.97 in - SSE 5.8 mph - N/A   Unknown
3:55 AM 41.2 °F 37.3 °F 24.1 °F 51% 29.96 in - NE 5.8 mph - N/A   Unknown
4:55 AM 42.4 °F - 24.1 °F 48% 29.96 in - North - - N/A   Unknown
5:55 AM - - - N/A% - - North - - N/A   Unknown
6:55 AM - - - N/A% - - North - - N/A   Unknown
7:55 AM 53.8 °F - 23.9 °F 31% 30.02 in - SE 2.3 mph - N/A   Unknown
8:55 AM 61.9 °F - 27.0 °F 27% 30.02 in - NE 3.5 mph - N/A   Unknown
9:55 AM 65.7 °F - 25.7 °F 22% 30.00 in - ENE 6.9 mph - N/A   Unknown
10:55 AM 67.8 °F - 24.4 °F 19% 30.00 in - Variable 2.3 mph - N/A   Unknown
11:55 AM 71.6 °F - 22.3 °F 16% 29.97 in - ENE 3.5 mph - N/A   Unknown
12:55 PM 72.5 °F - 21.9 °F 15% 29.94 in - Variable 5.8 mph - N/A   Unknown
1:55 PM 73.2 °F - 21.9 °F 15% 29.91 in - NW 8.1 mph 18.4 mph N/A   Unknown
2:55 PM 71.8 °F - 21.0 °F 15% 29.91 in - NW 9.2 mph 16.1 mph N/A   Unknown
3:55 PM 71.1 °F - 21.7 °F 16% 29.91 in - WNW 10.4 mph 18.4 mph N/A   Unknown
4:55 PM 67.5 °F - 28.4 °F 23% 29.92 in - WNW 10.4 mph - N/A   Unknown
5:55 PM 62.6 °F - 32.4 °F 32% 29.96 in - West 3.5 mph - N/A   Unknown
6:55 PM 59.4 °F - 30.4 °F 33% 29.99 in - ESE 3.5 mph - N/A   Unknown
7:55 PM 57.6 °F - 30.4 °F 36% 29.96 in - ESE 2.3 mph - N/A   Unknown
8:55 PM 51.3 °F - 32.4 °F 48% 29.97 in - WNW 6.9 mph - N/A   Unknown
9:55 PM 47.1 °F - 33.6 °F 59% 29.98 in - SSW 3.5 mph - N/A   Unknown
10:55 PM 45.1 °F - 35.1 °F 68% 29.99 in - South 2.3 mph - N/A   Unknown
11:55 PM 44.6 °F 41.4 °F 36.1 °F 72% 29.97 in - SE 5.8 mph - N/A   Unknown